www.pogodaiklimat.ru

Погода и климат >> Архив погоды >> Россия >> Краснодарский край >> Приморско-Ахтарск


АРХИВ ПОГОДЫ в Приморско-Ахтарске

Время (UTC), дата Ветер
(напр.,м/с)
 
Видим.   Явления Облачность Т
(С)
Тd
(С)
f
(%)
Тe
(С)
Тes
(С)
Комфортность P
(гПа)
Po
(гПа)
Тmin
(С)
Tmax
(С)
R
(мм)
R24
(мм)
S
(см)
09 14.04 В 1 10 км 10/10 600 м
[Cu Sc]
+15.4 +10.8 74 +16 +16 тепло 1012.8 1012.3
12 14.04 СВ 3 10 км слаб. ливневой дождь 10/10 600 м
[Cb calv]
+14.4 +11.9 85 +13 +13 по сезону 1010.9 1010.5
15 14.04 СВ 3 10 км {ливн. осадки} 10/6 600 м
[Cb calv Ac trans]
+14.4 +11.9 85 +13 +14 по сезону 1009.6 1009.1 +15.5 1
18 14.04 СВ 3 10 км {ливн. осадки} 6/0
[Ac trans Cc]
+13.0 +10.8 86 +12 +12 по сезону 1008.8 1008.3
21 14.04 СВ 4 10 км 10/0
[Ac trans Ci sp]
+13.0 +10.3 84 +11 +11 тепло 1008.1 1007.6
00 15.04 В 3 10 км 10/10 600 м
[Cb calv]
+12.6 +10.4 86 +11 +11 тепло 1006.9 1006.4
03 15.04 Ю 2 4000 м слаб. ливневой дождь 10/10 600 м
[Cb calv]
+12.3 +11.4 94 +11 +11 тепло 1007.8 1007.3 +12.3 4
06 15.04 Ю 2 4000 м в посл. час ливневой дождь 10/10 300 м
[Cb calv]
+12.9 +11.4 91 +12 +12 тепло 1009.3 1008.8 +12.2
09 15.04 ЮЗ 2
{10}
10 км 10/10 600 м
[Cb calv]
+13.7 +9.2 74 +13 +13 по сезону 1011.0 1010.5
12 15.04 ЮЗ 3 10 км 10/8 600 м
[Cu med, cong Ci fib]
+16.9 +7.9 55 +17 +18 тепло 1011.4 1010.9
15 15.04 Ю 2 10 км 8/8 600 м
[Cu med, cong]
+14.3 +8.4 68 +14 +14 тепло 1011.6 1011.1 +17.1 3
18 15.04 Ю 1 10 км 8/8 600 м
[Sc diur, vesp]
+12.3 +8.7 79 +12 +12 по сезону 1012.3 1011.9
21 15.04 Ю 1 4000 м дымка 10/10 600 м
[Sc diur, vesp]
+11.0 +8.7 86 +11 +11 по сезону 1013.2 1012.7
00 16.04 Ю 1 10 км 10/10 600 м
[Sc]
+11.2 +8.6 84 +11 +11 тепло 1013.2 1012.7
03 16.04 ЮЗ 1 10 км 10/10 600 м
[Cb calv]
+10.9 +8.3 84 +11 +11 тепло 1013.7 1013.2 +10.6
06 16.04 Ю 1 10 км 10/10 600 м
[Cb calv]
+12.6 +7.2 70 +13 +13 тепло 1014.4 1013.9
09 16.04 З 2 10 км 10/10 600 м
[Cb calv]
+12.1 +7.3 72 +11 +11 по сезону 1014.7 1014.2
12 16.04 СЗ 3 10 км 10/10 600 м
[Cb calv]
+11.3 +7.0 75 +10 +10 прохладно 1014.5 1014.0
15 16.04 СЗ 2 10 км 10/10 600 м
[Sc]
+11.4 +6.7 73 +10 +10 по сезону 1014.6 1014.1 +13.1
18 16.04 СЗ 2 10 км 10/10 600 м
[Sc]
+11.2 +7.5 78 +10 +10 по сезону 1014.9 1014.4
21 16.04 СЗ 3 10 км 10/10 600 м
[Sc]
+10.8 +6.4 74 +9 +9 по сезону 1014.1 1013.6
00 17.04 СЗ 3 10 км 10/10 600 м
[Sc]
+10.9 +7.5 80 +9 +9 по сезону 1013.0 1012.5
03 17.04 С 2 10 км 10/10 600 м
[Cb calv]
+12.0 +9.4 84 +11 +11 по сезону 1011.8 1011.3 +10.5
06 17.04 СВ 3 10 км 10/10 600 м
[Sc]
+11.8 +8.8 82 +10 +10 по сезону 1012.1 1011.6
09 17.04 СВ 4 10 км 10/10 600 м
[Sc]
+11.6 +9.0 84 +9 +9 прохладно 1013.0 1012.5
12 17.04 СВ 6-13
{13}
10 км {ливн. осадки} 10/10 600 м
[Cb calv]
+10.1 +6.6 79 +7 +7 холодно 1014.9 1014.4
15 17.04 СВ 6-12
{15}
10 км 10/10 600 м
[Cb calv]
+7.8 +4.0 77 +4 +4 очень
холодно
1017.6 1017.1 +12.2
18 17.04 В 5-10
{14}
10 км 10/10 600 м
[Sc diur, vesp]
+6.9 +3.3 78 +3 +3 холодно 1020.2 1019.7
21 17.04 СВ 5-10
{13}
10 км 10/10 600 м
[Sc]
+5.9 +2.2 77 +2 +2 холодно 1021.1 1020.6
00 18.04 В 5-11
{13}
10 км 10/0
[Ac und]
+4.2 -0.4 72 -1 -1 очень
холодно
1021.1 1020.6
03 18.04 В 5
{12}
10 км 10/10 600 м
[Sc]
+3.9 -2.4 63 -1 -1 очень
холодно
1021.7 1021.2 +3.8
06 18.04 В 5-11
{11}
10 км 10/10 600 м
[Sc]
+5.5 -2.6 56 +2 +2 очень
холодно
1022.7 1022.2
09 18.04 В 5
{12}
10 км 10/10 600 м
[Sc]
+7.3 -3.6 46 +4 +4 очень
холодно
1023.4 1022.9
12 18.04 В 6-11
{12}
10 км 10/10 600 м
[Sc]
+9.3 -0.8 49 +6 +6 очень
холодно
1022.6 1022.1
15 18.04 В 4
{12}
10 км 10/4 600 м
[Sc Ac trans]
+8.9 -0.9 50 +6 +7 холодно 1022.2 1021.7 +10.1
18 18.04 В 3 10 км 10/10 600 м
[Sc]
+8.0 -1.5 51 +6 +6 прохладно 1023.0 1022.5
21 18.04 СВ 3 10 км 10/10 600 м
[Sc]
+6.6 -2.2 53 +4 +4 холодно 1022.4 1021.9
00 19.04 В 3 10 км 10/10 600 м
[Sc]
+5.4 -3.6 52 +3 +3 прохладно 1021.3 1020.8
03 19.04 В 4 10 км 10/10 600 м
[Sc]
+4.9 -5.1 48 +1 +1 очень
холодно
1020.7 1020.2 +4.9
06 19.04 В 5-10
{10}
10 км 10/6 600 м
[Sc As op]
+5.6 -5.4 45 +2 +2 очень
холодно
1021.0 1020.5 +4.8
09 19.04 В 5-12
{13}
10 км 10/4 600 м
[Sc Ac As]
+9.1 -8.4 28 +7 +8 холодно 1020.6 1020.1
12 19.04 В 6-14
{15}
10 км 10/10 600 м
[Sc]
+8.8 -6.1 34 +6 +6 очень
холодно
1020.6 1020.1
15 19.04 В 5
{14}
10 км 10/10 600 м
[Sc]
+9.4 -5.7 34 +7 +7 холодно 1020.5 1020.0 +9.8
18 19.04 В 4
{11}
10 км 10/10 600 м
[Sc]
+9.1 -5.4 35 +7 +7 прохладно 1021.2 1020.7
21 19.04 В 4
{12}
10 км 9/9 600 м
[Sc]
+7.3 -5.3 40 +5 +5 прохладно 1021.2 1020.7
00 20.04 В 5
{10}
10 км 9/9 600 м
[Sc]
+5.1 -4.7 49 +1 +1 холодно 1021.2 1020.7
03 20.04 СВ 4 10 км 8/0
[Ac trans Ci fib]
+3.9 -3.8 57 0 0 очень
холодно
1021.4 1020.9 +3.9
06 20.04 В 5-10
{11}
10 км 6/0
[Ac trans]
+7.4 -3.8 45 +4 +7 холодно 1022.0 1021.5
09 20.04 В 6-12
{12}
10 км 6/0
[Ac trans]
+11.8 -5.1 30 +10 +13 прохладно 1022.1 1021.6
12 20.04 СВ 6-10
{13}
10 км 1/0
[Ac trans]
+13.6 -6.0 25 +12 +16 прохладно 1021.7 1021.2
15 20.04 В 5
{12}
10 км ясно +12.8 -7.6 23 +11 +12 по сезону 1021.5 1021.0 +13.8
18 20.04 В 2
{10}
10 км ясно +8.2 -2.3 47 +7 +7 прохладно 1022.7 1022.2
21 20.04 СВ 2 10 км ясно +6.5 -3.6 48 +5 +5 прохладно 1022.4 1021.9
00 21.04 СВ 2 10 км ясно +4.6 -4.1 53 +3 +3 холодно 1021.7 1021.2
03 21.04 СВ 2 10 км ясно +4.0 -3.2 59 +2 +2 холодно 1021.5 1021.0 +4.0
06 21.04 В 4 10 км ясно +10.3 -3.1 39 +8 +13 прохладно 1021.5 1021.0

 

Местоположение метеостанции Приморско-Ахтарск (Краснодарский край, Россия): широта 46.03 долгота 38.15 высота над уровнем моря 4 м.

В архиве по умолчанию представлена погода в Приморско-Ахтарске за последнюю неделю. Архивные данные за месяц целиком и за предыдущие месяцы, начиная с января 2011 года, Вы можете получить, выбрав интересующий диапазон дат из раскрывающегося списка и нажав кнопку "Ввод!".


*Определитесь, кто Вы:
робот инопланетянин человек

Внимание! Время в таблицах - всемирное. Для получения местного времени необходимо прибавить поправку, которая равна 3 ч.

Смотрите также архив погоды в соседних городах и на ближайших метеорологических станциях:

Погода в Каневской (Краснодарский край, Россия) (63 км)
Погода в Тимашевске (Краснодарский край, Россия) (75 км)
Погода в Должанке (Краснодарский край, Россия) (79 км)
Погода в Славянске-на-Кубани (Краснодарский край, Россия) (83 км)
Погода в Ейске (Краснодарский край, Россия) (86 км)
Погода в Староминская (Краснодарский край, Россия) (87 км)
Погода в Темрюке (Краснодарский край, Россия) (99 км)
Погода в Маргаритово (Ростовская область, Россия) (114 км)
Погода в Кореновске (Краснодарский край, Россия) (121 км)
Погода в Мариуполе (Донецкая область, Украина) (122 км)

Пояснения к столбцам:

Ветер - указаны скорость ветра в м/с - средняя за 10 мин, порывы в срок и между сроками (в фигурных скобках) и направление, откуда дует ветер: С - северный, СВ - северо-восточный, В - восточный, ЮВ - юго-восточный, Ю - южный, ЮЗ - юго-западный, З - западный, СЗ - северо-западный.
Видимость - горизонтальная дальность видимости в метрах или километрах. При видимости от 1 до 10 км при отсутствии осадков обычно наблюдается дымка, при ухудшении видимости до 1 км и менее - туман. В сухую погоду видимость может ухудшаться дымом, пылью или мглою.
Явления - указаны атмосферные явления, наблюдавшиеся в срок или в последний час перед сроком; фигурными скобками обозначены явления, наблюдавшиеся между сроками (за 1-3 часа до срока); квадратными скобками обозначены град или гололедные отложения с указанием их диаметра в мм.
Облачность - указаны через наклонную черту общая и нижняя облачность в баллах и высота нижней границы облаков в метрах; квадратными скобками обозначены формы облаков: Ci - перистые, Cs - перисто-слоистые, Cc - перисто-кучевые, Ac - высококучевые, As - высокослоистые, Sc - слоисто-кучевые, Ns - слоисто-дождевые, Cu - кучевые, Cb - кучево-дождевые. Подробнее классификацию облаков см. в Атласе облаков (PDF).
T - Температура воздуха - температура, измеренная на высоте 2 м над землей.
Td - Температура точки росы - температура, при понижении до которой содержащийся в воздухе водяной пар достигнет насыщения.
f - Относительная влажность воздуха - влажноcть воздуха, измеренная на высоте 2 м над землей.
Te - Эффективная температура - температура, которую ощущает одетый по сезону человек в тени. Характеристика душности погоды. При расчете учитывается влияние влажности воздуха и скорости ветра на теплоощущения человека.
Tes - Эффективная температура на солнце - температура, которую ощущает человек, с поправкой на солнечный нагрев. Характеристика знойности погоды. Зависит от высоты солнца над горизонтом, облачности и скорости ветра. Ночью, в пасмурную погоду, а также при ветре 12 м/с и более поправка равна нулю.
P - Атмосферное давление - приведенное к уровню моря атмосферное давление.
Po - Атмосферное давление - измеренное на уровне метеостанции атмосферное давление.
Tmin - Минимальная температура - минимум температуры воздуха на высоте 2 м над землей.
Tmax - Максимальная температура - максимум температуры воздуха на высоте 2 м над землей.
R - Количество осадков - Количество выпавших осадков за период времени, мм. При наведении курсора мыши на число - период времени, за который выпало указанное количество осадков.
R24 - Количество осадков - Количество выпавших осадков за 24 часа, мм.
S - Снежный покров - Высота снежного покрова, см. При наведении курсора мыши на число - состояние снежного покрова и степень покрытия местности в баллах.